EGSSLFRG

Guest
Details From EGSS - London Stansted
To LFRG - Deauville Saint Gatien
Flight Number -
Tags generated
Created
Modified
Stats Distance 151 nm / 280 km
Max Altitude 14,200 ft / 4,328 m
Waypoints 3
Social Downloads 1
Likes 0
Share VATSIM

Download

Looking for another format? Having issues loading an existing format? Contact us
Advertisement - Login to hide

Notes

Basic altitude profile: - Ascent Rate: 2500ft/min - Ascent Speed: 250kts - Cruise Altitude: 35000ft - Cruise Speed: 420kts - Descent Rate: 1500ft/min - Descent Speed: 250kts

Route

EGSS BEECH LFRG

ID Type Via Altitude Latitude Longitude Leg Dist Tot Dist Heading (true) Name
O EGSS APT - 0 ft / 0 m 51.88510˚ 0.23496˚ - 0 nm - London Stansted
BEECH FIX - 14,200 ft / 4,328 m 50.47056˚ 0.21000˚ 84 nm 84 nm 181° / 181° -
O LFRG APT - 0 ft / 0 m 49.36530˚ 0.15432˚ 66 nm 151 nm 182° / 182° Deauville Saint Gatien

Altitude Profile

Advertisement - Login to hide

EGSS

Details ICAO EGSS (STN)
Name London Stansted
Region United Kingdom
Timezone Europe/London (UTC+1.0)
Stats Elevation 348 ft / 106 m (AMSL)
Location 51.885097° 0.234962°
Runways 1
Magnetic Variation 0.297° W

METAR

EGSS 261420Z AUTO 06015KT 9999 FEW025 24/17 Q1019

Decode

TAF

TAF AMD EGSS 261441Z 2614/2718 05010KT 9999 FEW025 TEMPO 2614/2618 06015G25KT PROB40 TEMPO 2622/2712 3000 +TSRA BKN012 BKN040CB TEMPO 2712/2718 5000 +SHRA TSRA BKN014 BKN040CB PROB40 TEMPO 2712/2718 VRB15G25KT 2000 +TSGR

Decode

Departure Runways

ID Width Length Bearing (true) Bearing (mag) Surface Threshold Offset Overrun Length
04 151 ft / 46 m 10,011 ft / 3,052 m 42.79° 43.09° Asphalt 994 ft / 303 m 0 ft / 0 m
22 151 ft / 46 m 10,011 ft / 3,052 m 222.81° 223.11° Asphalt 0 ft / 0 m 0 ft / 0 m

LFRG

Details ICAO LFRG (DOL)
Name Deauville Saint Gatien
Region France
Timezone Europe/Paris (UTC+2.0)
Stats Elevation 479 ft / 146 m (AMSL)
Location 49.365296° 0.154324°
Runways 1
Magnetic Variation 0.080° W

METAR

LFRG 261430Z AUTO 14012G22KT 110V180 9999 4000 BKN044 BKN052 25/17 Q1014 TEMPO VRB15G38KT 4000 TSRA BKN030CB

Decode

TAF

Not found

Destination Runways

ID Width Length Bearing (true) Bearing (mag) Surface Threshold Offset Overrun Length
12 148 ft / 45 m 8,344 ft / 2,543 m 117.22° 117.30° Asphalt 1,476 ft / 450 m 0 ft / 0 m
30 148 ft / 45 m 8,344 ft / 2,543 m 297.25° 297.33° Asphalt 1,378 ft / 420 m 0 ft / 0 m

Approach Navaids

Runway Type Ident Frequency Range Bearing (true) Bearing (mag) Slope Elevation
30 Localiser DV 111.55 MHz 18 nm / 33 km 297.22° 297.30° - 479 ft / 146 m (AMSL)
30 Glidescope DV 111.55 MHz 10 nm / 19 km 297.23° 297.31° 3.00° 479 ft / 146 m (AMSL)
30 DME DV 111.55 MHz 18 nm / 33 km - - - 466 ft / 142 m (AMSL)

Popular Alternatives